Flag for U.S.A. Weather past 2 weeks in Springfield, Massachusetts, U.S.A.

Now
51 °F

Clear.


Feels Like: 51 °F
Forecast: 42 / 66 °F
Wind: No wind

Location: Barnes Municipal Airport

Current Time: May 22, 2015 at 11:10:40 PM

Latest Report: May 22, 2015 at 10:53 PM


Visibility: 10 mi

Pressure: 30.09 "Hg

Humidity: 42%

Dew point: 29 °F

Location of SpringfieldLocation

Historic Weather in Springfield — Graph

°F

Springfield temperature yesterday

Maximum temperature yesterday: 67 °F (at 2:53 PM)
Minimum temperature yesterday: 41 °F (at 4:53 AM)
Average temperature yesterday: 56 °F

Past Weeks' High & Low Weather Summary

 TemperatureHumidityPressure
High92 °F (May 10, 3:53 PM)94% (May 11, 4:53 AM)30.39 "Hg (May 11, 4:53 AM)
Low35 °F (May 14, 6:01 AM)16% (May 14, 1:53 PM)29.66 "Hg (May 12, 3:53 PM)
Average64 °F58%30.06 "Hg
* Reported May 7 9:53 PM — May 22 9:53 PM, Springfield, Weather by CustomWeather, © 2015

Note: Actual official high and low records may vary slightly from our data, if they occured in-between our weather recording intervals... More about our weather records

Advertising

Springfield weather history for previous 24 hours

 ConditionsComfort  
Time TempWeatherWind HumidityBarometerVisibility
9:53 PM
Fri, May 22
56 °FClear.5 mph32%30.07 "Hg10 mi
8:53 PM58 °FSunny.10 mph28%30.04 "Hg10 mi
7:53 PM62 °FSunny.12 mph25%30.00 "Hg10 mi
6:53 PM65 °FSunny.20 mph22%29.96 "Hg10 mi
2:53 PM72 °FPassing clouds.22 mph21%29.86 "Hg10 mi
1:53 PM72 °FPassing clouds.16 mph22%29.84 "Hg10 mi
12:53 PM72 °FScattered clouds.15 mph29%29.84 "Hg10 mi
11:53 AM71 °FScattered clouds.17 mph28%29.84 "Hg10 mi
10:53 AM69 °FSunny.14 mph31%29.85 "Hg10 mi
9:53 AM66 °FSunny.14 mph34%29.85 "Hg10 mi
8:53 AM62 °FSunny.16 mph43%29.85 "Hg10 mi
7:53 AM60 °FSunny.No wind49%29.85 "Hg10 mi
6:53 AM56 °FScattered clouds.3 mph62%29.85 "Hg10 mi
5:53 AM54 °FMostly cloudy.No wind62%29.83 "Hg10 mi
4:53 AM54 °FOvercast.5 mph64%29.83 "Hg10 mi
3:53 AM51 °FOvercast.3 mph77%29.83 "Hg10 mi
2:53 AM52 °FOvercast.3 mph75%29.83 "Hg10 mi
1:53 AM53 °FOvercast.5 mph69%29.83 "Hg10 mi
12:53 AM54 °FOvercast.6 mph64%29.85 "Hg10 mi
11:53 PM
Thu, May 21
54 °FPassing clouds.5 mph59%29.86 "Hg10 mi
Weather by CustomWeather, © 2015

See weather overviewHow to use our weather pages